Skip Page Navigation
NASA JPL Caltech
NASA Logo - Jet Propulsion Laboratory + View the NASA Portal
+ Near-Earth Object (NEO) Program
Search JPL
JPL Home Earth Solar System Stars & Galaxies Technology
JPL Solar System Dynamics
BODIES ORBITS EPHEMERIDES TOOLS PHYSICAL DATA DISCOVERY FAQ SITE MAP
JPL Small-Body Database Browser
Search: [ help ]  
3704 Gaoshiqi (1981 YX1)
Classification: Main-belt Asteroid          SPK-ID: 2003704
Ephemeris | Orbit Diagram | Orbital Elements | Physical Parameters | Discovery Circumstances | Close-Approach Data ]

[ show orbit diagram ]
Orbital Elements at Epoch 2457400.5 (2016-Jan-13.0) TDB
Reference: JPL 17 (heliocentric ecliptic J2000)
 Element Value Uncertainty (1-sigma)   Units 
e .05122737349324836 4.717e-08  
a 2.409796456781897 1.2205e-08 au
q 2.286348913647624 1.1156e-07 au
i 5.890612616762294 4.8237e-06 deg
node 233.7486364199027 4.9847e-05 deg
peri 36.97206989382133 7.3381e-05 deg
M 199.4023185082243 5.5929e-05 deg
tp 2458010.044952765145
(2017-Sep-13.54495277)
0.00021335 JED
period 1366.372048196036
3.74
1.0381e-05
2.842e-08
d
yr
n .2634714318660815 2.0017e-09 deg/d
Q 2.53324399991617 1.2831e-08 au
  Orbit Determination Parameters
   # obs. used (total)      1551  
   data-arc span      22425 days (61.40 yr)  
   first obs. used      1954-07-28  
   last obs. used      2015-12-20  
   planetary ephem.      DE431  
   SB-pert. ephem.      SB431-BIG16  
   condition code      0  
   fit RMS      .50675  
   data source      ORB  
   producer      Otto Matic  
   solution date      2016-Jan-04 12:49:06  

Additional Information
 Earth MOID = 1.27212 au 
 Jupiter MOID = 2.49633 au 
 T_jup = 3.511 
[ show covariance matrix ]

Ephemeris | Orbit Diagram | Orbital Elements | Physical Parameters | Discovery Circumstances | Close-Approach Data ]

Physical Parameter Table
Parameter Symbol Value Units Sigma Reference Notes
absolute magnitude H 12.6 mag n/a MPO347551  
rotation period rot_per 9.7725 h n/a LCDB (Rev. 2015-December); Warner et al., 2009 Result based on less than full coverage, so that the period may be wrong by 30 percent or so.
Published Reference List:
[Pravec, P.; Wolf, M.; Sarounova, L. (2010) http://www.asu.cas.cz/~ppravec/neo.htm]
[Oey, J.; Inasaridze, R.Y.; Kvaratskhelia, O.I.; Ayvazian, V.; et al. (2013) Minor Planet Bul. 40, 169-172.]
SMASSII spectral type spec_B Xk   n/a EAR-A-5-DDR-TAXONOMY-V4.0 based on a high-resolution spectrum by Xu et al. (1995) or Bus and Binzel (2002)

3704 Gaoshiqi           Discovered 1981 Dec. 20 at the Purple Mountain Observatory.
Gao Shi-Qi (1905-1988) is considered the founder of science popularization in China. His contraction of encephalitis during a scientific experiment at the University of Chicago in 1928 caused paralysis of his whole body.
NOTE: some special characters may not display properly (any characters within {} are an attempt to place the proper accent above a character)
Reference: 19990928/MPCPages.arcLast Updated: 2010-06-11

[ show close-approach data ]
Alternate Designations
 1981 YX1 = 1951 WH1 = 1957 HR = 1958 UB = 1972 HD = 1973 TR = 1977 TK7 = 1977 VH2 = 1979 FL1 = 1980 OJ 
Ephemeris | Orbit Diagram | Orbital Elements | Physical Parameters | Discovery Circumstances | Close-Approach Data ]
ABOUT SSD CREDITS/AWARDS PRIVACY/COPYRIGHT GLOSSARY LINKS
FirstGov 2016-Feb-06 20:33 UT
(server date/time)  
NASA Home Page
Site Manager:   Ryan S. Park
Webmaster  Alan B. Chamberlin